Погода в Бирзаи

Погода в Бирзаи : погода сейчас, прогноз погоды и архив. Всё, что Вы хотите узнать о погоде в Бирзаи!

Поиск расширенной информации на нашем сайте:

Другие новости

Новости СМИ2

Главная страница сайта

Новости сайта

03.07.2017

Напоминаем, что на нашем специализированном сайте Метеоцентр.Азия вы можете получить высокодетализированные автоматические прогнозы погоды по пунктам России, СНГ и мира в авиационном формате (включающие направление и скорость ветра, видимость, явления погоды, количество и форму облачности, нижнюю и верхнюю границу облачности).


Погода в Бирзаи - сегодня

Время (UTC), дата Ветер
(°,м/с) 
Видим.   Явления Облачность Т
(°С)
Тd
(°С)
f(%) Тe
(°С)
Pmin
(гПа)
dP
(гПа)
Po
(мм)
O2
(г/м3)
Тmin Tmax R s Состояние
почвы
21 17.08.17 тихо () -2{03}  7000 м  дымка  ясно 
+12.2 +10.9 92 +14  1020.4  0.4  760  290           
00 18.08.17 тихо () -2{03}  3300 м  дымка  ясно 
+9.7 +9.3 97 +10  1020  -0.4  759  294           
03 18.08.17 тихо () -0{03}  9000 м  дымка  9/0 средняя, верхняя 
[Ac trans|Cs]
+8.9 +8.6 98 +9  1019.4  -0.7  759  294           
06 18.08.17 110 (В) 3-4{04}  18000 м    6/4 1500 м средняя 
[Sc|Ac As]
+15.8 +13.6 87 +22  1018.6  -0.6  758  285  +8.7        сухая 
09 18.08.17 120 (ЮВ) 4-7{07}  18000 м    10/0 средняя 
[Ac As]
+20.2 +13.6 66 +26  1017.4  -1  758  281           
12 18.08.17 230 (ЮЗ) 4-9{09}  19000 м    5/1 1000 м средняя 
[Cu hum|Ac As]
+23.3 +16.6 66 +35  1016.3  -1.1  757  277           
15 18.08.17 210 (ЮЗ) 2-6{09}  19000 м    5/0 средняя 
[Ac trans]
+24 +15 57 +33  1015.8  -0.5  756  276           
18 18.08.17 120 (ЮВ) 1-3{06}  19000 м    8/0 средняя 
[Ac trans]
+21.4 +15.4 69 +31  1015.7  -0.1  756  279    +24.4       
21 18.08.17 130 (ЮВ) 1-2{03}  16000 м    ясно 
+17.3 +14.7 85 +27  1015.2  -0.6  756  283           
00 19.08.17 тихо () -2{03}  15000 м    6/0 средняя 
[Ac trans]
+16.5 +14.8 90 +25  1014.3  -0.5  755  284           
03 19.08.17 120 (ЮВ) 2-3{03}  7000 м  дымка  9/0 средняя 
[Ac und]
+17.1 +16.1 94 +29  1013  -1.3  754  282           
06 19.08.17 120 (ЮВ) 3-5{06}  13000 м    3/0 средняя 
[Ac trans]
+20.9 +18 83 +35  1011.8  -1.1  753  277  +16        сухая 
09 19.08.17 180 (Ю) 4-8{09}  19000 м    5/0 средняя, верхняя 
[Ac trans|Cs]
+27.7 +17.6 54 +41  1010.7  -0.9  753  271           
12 19.08.17 200 (Ю) 4-10{11}  18000 м    8/3 1500 м средняя, верхняя 
[Sc|Ac trans|Cs]
+29.5 +17 47 +42  1010.4  -0.3  753  270           
15 19.08.17 290 (З) 3-5{12}  14000 м  слаб. ливневой дождь, в посл. час гроза  10/8 600 м кучево-дожд., средняя 
[Cb cap|Ac cuf]
+21 +19.5 91 +38  1012.1  1.5  754  277           
18 19.08.17 тихо () -3{10}  19000 м  в посл. час ливневой дождь{гроза}  10/3 1000 м кучево-дожд., средняя 
[Cb cap|Ac As]
+16.9 +15.5 91 +26  1015.7  3.5  756  283    +30.3  11     
21 19.08.17 260 (З) 2-4{04}  14000 м  слаб. дождь{ливн. осадки}  10/0 средняя 
[Ac As]
+16.5 +15.7 95 +27  1016.9  1.2  757  284           
00 20.08.17 240 (ЮЗ) 1-2{05}  6000 м  дымка{ливн. осадки, дождь}  10/0 верхняя 
[Cs]
+15.1 +14.6 97 +24  1017.9  0.9  758  286         
03 20.08.17 250 (З) 1-3{03}  3100 м  дымка  10/0 верхняя 
[Cs]
+14.7 +14.2 97 +23  1017.9  758  286           
06 20.08.17 тихо () -2{03}  7000 м  дымка  10/0 средняя 
[Ac As]
+15 +14.3 96 +22  1018.6  0.7  758  286  +14.4      влажная 
09 20.08.17 тихо () -3{03}  19000 м    8/3 300 м средняя, верхняя 
[Frnb|Ac As|Cs]
+17 +14.4 85 +24  1018.8  0.3  759  284           
12 20.08.17 180 (Ю) 1-3{04}  20000 м  слаб. дождь  10/3 300 м средняя 
[Frnb|As op]
+17.8 +13.7 77 +25  1018.9  0.1  759  284      0.0     
15 20.08.17 120 (ЮВ) 2-4{05}  19000 м  слаб. дождь  10/0 средняя 
[As op]
+15.1 +12.9 87 +21  1018.2  -0.8  758  286           
18 20.08.17 160 (Ю) 1-3{04}  3000 м  дождь  10/10 1500 м 
[Ns]
+13.6 +12.7 94 +20  1017.9  -0.3  758  288    +18.3     
21 20.08.17 тихо () -2{03}  6000 м  слаб. дождь  10/10 660 м 
[Frnb|Ns]
+13.4 +13 97 +19  1017  -0.9  757  287           
Время (UTC), дата Ветер
(°,м/с) 
Видим.   Явления Облачность Т
(°С)
Тd
(°С)
f(%) Тe
(°С)
Pmin
(гПа)
dP
(гПа)
Po
(мм)
O2
(г/м3)
Тmin Tmax R s Состояние
почвы

Для получения пояснительной информации подведите курсор к названию столбца.

ПОГОДА в Бирзаи - архив

Всё, что Вы хотите узнать о погоде в Бирзаи - удобно и подробно!

Выберите нужную дату (начиная с 1 января 2015* года) и нажмите кнопку "Найти".
Будут отображены архивные сводки погоды по пункту Бирзаи, начиная с указанной даты.


Отображать данные в формате CSV (для использования в таблицах Excel)


Внимание! Наш архив погоды предназначен исключительно для личного некоммерческого использования в познавательных целях. Если Вам необходимы официальные справки о состоянии погоды (для производственных, юридических, коммерческих и т.п. целей), обращайтесь в органы Росгидромета.

*Примечание: данная дата относится к архиву по метеостанциям СССР (Россия, СНГ, Балтия).
Архив по метеостанциям Зарубежной Европы и Азии (кроме Китая) хранится 10 дней, по другим регионам земного шара (Китай, Африка, Америка, Австралия, Океания) - 1 день.

Бирзаи - район местоположения метеостанции


Название, широта, долгота, высота метеостанции:
Бирзаи 56.2°ш. 24.8°д. 62 м над ур. моря [Литва]

Дополнительная информация

В oтличие oт бoльшинства пoгoдных сайтoв мы публикуем пoдрoбную метеoинфoрмацию в детальнoм прoфессиoнальнoм фoрмате.

Характеристики температуры и влажнoсти вoздуха измеряются на высoте 2 м в тени вдали oт зданий и деревьев.
Скoрoсть ветра измеряется на высoте 10 м (на урoвне рoста челoвека скoрoсть ветра ниже в 1.5-2 раза). Если метеoстанция нахoдится в гoрoде или в лесу, тo скoрoсть ветра занижена на 2-4 м/с пo сравнению с oткрытым местoм. Скoрoсть ветра над акватoриями крупных рек и oзёр, а также на вершинах хoлмoв на 2-5 м/с выше, чем в oбычных услoвиях.
Атмoсфернoе давление в разных тoчках местнoсти мoжет значительнo oтличаться oт давления на метеoстанции, в зависимoсти oт услoвий рельефа (при пoдъёме на 10 м давление пoнижается примернo на 1 мм рт.ст.).